Location: Beaufort Park
(39.1418°N, 76.9433°W)
Time: 22:23:05
(UTC+00:00)

Cosmos 1455 - Pass Details

Date: 29 October 2020
Orbit: 499 x 521 km, 82.5° (Epoch: 02 December)

Event Time Altitude Azimuth Distance (km) Brightness Sun altitude
Rises 22:35:08 0° 147° (SSE) 2,594 5.6 -5.6°
Reaches altitude 10° 22:37:55 10° 124° (SE) 1,721 4.5 -6.1°
Maximum altitude 22:40:10 15° 87° (E) 1,421 3.8 -6.5°
Drops below altitude 10° 22:42:27 10° 50° (NE) 1,738 4.3 -7.0°
Sets 22:45:16 0° 28° (NNE) 2,635 5.4 -7.5°
